Weather History for Inverness, FL

Change the Weather History Date:

Sunday, March 17, 2013

  Actual Average (KOCF) Record (KOCF)
Temperature  
Mean Temperature 60 °F -  
Max Temperature 77 °F 74 °F 87 °F (2002)
Min Temperature 44 °F 51 °F 39 °F (1999)
Degree Days  
Heating Degree Days 4    
Growing Degree Days 10 (Base 50)    
Moisture  
Dew Point 50 °F    
Average Humidity 77    
Maximum Humidity 100    
Minimum Humidity 34    
Precipitation  
Precipitation 0.08 in - - ()
Sea Level Pressure  
Sea Level Pressure 30.09 in    
Wind  
Wind Speed 2 mph (South)    
Max Wind Speed 12 mph    
Max Gust Speed 16 mph    
Visibility 6 miles    
Events Fog , Rain    
Averages and records for this station are not official NWS values.
T = Trace of Precipitation, MM = Missing Value Source: NWS Daily Summary

Daily Weather History Graph

Daily Weather History Graph

Search for Another Location

Airport:

Trip Planner

Search our weather history database for the weather conditions in past years. The results will help you decide how hot, cold, wet, or windy it might be!

Date:

Astronomy

Mar. 17, 2013 Rise Set
Actual Time 7:36 AM EDT 7:39 PM EDT
Civil Twilight 7:12 AM EDT 8:02 PM EDT
Nautical Twilight 6:45 AM EDT 8:30 PM EDT
Astronomical Twilight 6:17 AM EDT 8:57 PM EDT
Moon 11:14 AM EDT (3/17) 12:20 AM EDT (3/17)
Length of Visible Light 12h 49m
Length of Day
12h 02m
Waxing Crescent, 31% of the Moon is Illuminated
Mar 17
Waxing Crescent
Mar 19
First Quarter
Mar 27
Full
Apr 3
Last Quarter
Apr 10
New

Hourly Weather History & Observations

Time (EDT) Temp. Dew Point Humidity Pressure Visibility Wind Dir Wind Speed Gust Speed Precip Events Conditions
12:15 AM 48.2 °F 42.8 °F 82% 30.13 in 10.0 mi Calm Calm - N/A   Clear
12:35 AM 46.4 °F 42.8 °F 87% 30.13 in 10.0 mi Calm Calm - N/A   Clear
12:55 AM 44.6 °F 42.8 °F 93% 30.13 in 10.0 mi Calm Calm - N/A   Clear
1:15 AM 44.6 °F 41.0 °F 87% 30.12 in 10.0 mi Calm Calm - N/A   Clear
1:35 AM 44.6 °F 42.8 °F 93% 30.12 in 10.0 mi Calm Calm - N/A   Mostly Cloudy
1:55 AM 44.6 °F 42.8 °F 93% 30.11 in 10.0 mi Calm Calm - N/A   Overcast
2:15 AM 44.6 °F 44.6 °F 100% 30.11 in 0.2 mi Calm Calm - N/A Fog Fog
2:35 AM 44.6 °F 44.6 °F 100% 30.11 in 0.2 mi Calm Calm - N/A Fog Fog
2:55 AM 44.6 °F 44.6 °F 100% 30.10 in 0.2 mi Calm Calm - N/A Fog Fog
3:15 AM 44.6 °F 44.6 °F 100% 30.10 in 0.2 mi Calm Calm - N/A Fog Fog
3:35 AM 46.4 °F 46.4 °F 100% 30.10 in 0.2 mi Calm Calm - N/A Fog Fog
3:55 AM 46.4 °F 46.4 °F 100% 30.09 in 0.2 mi Calm Calm - N/A Fog Fog
4:15 AM 46.4 °F 46.4 °F 100% 30.09 in 0.2 mi Calm Calm - N/A Fog Fog
4:35 AM 46.4 °F 46.4 °F 100% 30.09 in 0.2 mi Calm Calm - N/A Fog Fog
4:55 AM 46.4 °F 46.4 °F 100% 30.09 in 0.2 mi Calm Calm - N/A Fog Fog
5:15 AM 48.2 °F 48.2 °F 100% 30.09 in 0.2 mi Calm Calm - N/A Fog Fog
5:35 AM 48.2 °F 48.2 °F 100% 30.10 in 0.2 mi Calm Calm - N/A Fog Fog
5:55 AM 48.2 °F 48.2 °F 100% 30.10 in 0.2 mi Calm Calm - N/A Fog Fog
6:15 AM 48.2 °F 48.2 °F 100% 30.11 in 0.2 mi Calm Calm - N/A Fog Fog
6:35 AM 48.2 °F 48.2 °F 100% 30.11 in 0.2 mi Calm Calm - N/A Fog Fog
6:55 AM 48.2 °F 48.2 °F 100% 30.12 in 0.2 mi Calm Calm - N/A Fog Fog
7:15 AM 48.2 °F 48.2 °F 100% 30.13 in 0.2 mi Calm Calm - N/A Fog Fog
7:35 AM 48.2 °F 48.2 °F 100% 30.14 in 0.2 mi Calm Calm - N/A Fog Fog
7:55 AM 48.2 °F 48.2 °F 100% 30.14 in 0.2 mi Calm Calm - N/A Fog Fog
8:15 AM 50.0 °F 50.0 °F 100% 30.14 in 0.2 mi Calm Calm - N/A Fog Fog
8:35 AM 50.0 °F 50.0 °F 100% 30.15 in 1.8 mi Calm Calm - N/A   Overcast
8:55 AM 51.8 °F 51.8 °F 100% 30.15 in 1.5 mi Calm Calm - N/A   Overcast
9:15 AM 51.8 °F 51.8 °F 100% 30.15 in 2.0 mi SSE 4.6 mph - N/A   Mostly Cloudy
9:35 AM 53.6 °F 53.6 °F 100% 30.15 in 2.5 mi SSE 4.6 mph - N/A   Mostly Cloudy
9:55 AM 55.4 °F 55.4 °F 100% 30.15 in 7.0 mi South 3.5 mph - N/A   Scattered Clouds
10:35 AM 64.4 °F 51.8 °F 64% 30.14 in 10.0 mi SE 9.2 mph - N/A   Clear
10:55 AM 66.2 °F 48.2 °F 52% 30.16 in 10.0 mi SSE 8.1 mph - N/A   Clear
11:15 AM 69.8 °F 50.0 °F 49% 30.14 in 10.0 mi SSE 8.1 mph - N/A   Clear
11:35 AM 71.6 °F 50.0 °F 46% 30.14 in 10.0 mi South 10.4 mph - N/A   Clear
11:55 AM 71.6 °F 50.0 °F 46% 30.14 in 10.0 mi South 8.1 mph 16.1 mph N/A   Clear
12:15 PM 71.6 °F 48.2 °F 43% 30.14 in 10.0 mi SSW 6.9 mph - N/A   Clear
12:35 PM 73.4 °F 46.4 °F 38% 30.14 in 10.0 mi SSW 10.4 mph - N/A   Clear
12:55 PM 73.4 °F 46.4 °F 38% 30.12 in 10.0 mi SSW 6.9 mph - N/A   Clear
1:15 PM 73.4 °F 46.4 °F 38% 30.11 in 10.0 mi SSW 9.2 mph - N/A   Scattered Clouds
1:35 PM 73.4 °F 46.4 °F 38% 30.10 in 10.0 mi SE 4.6 mph - N/A   Clear
1:55 PM 75.2 °F 46.4 °F 36% 30.10 in 10.0 mi SSE 5.8 mph - N/A   Clear
2:35 PM 77.0 °F 46.4 °F 34% 30.07 in 10.0 mi South 6.9 mph - N/A   Clear
2:55 PM 77.0 °F 46.4 °F 34% 30.06 in 10.0 mi SW 5.8 mph - N/A   Clear
3:15 PM 77.0 °F 46.4 °F 34% 30.06 in 10.0 mi South 9.2 mph - N/A   Clear
3:35 PM 75.2 °F 46.4 °F 36% 30.05 in 10.0 mi South 11.5 mph - N/A   Clear
3:55 PM 73.4 °F 46.4 °F 38% 30.05 in 10.0 mi South 8.1 mph - N/A   Clear
4:15 PM 73.4 °F 48.2 °F 41% 30.03 in 10.0 mi South 6.9 mph - N/A   Clear
4:35 PM 73.4 °F 48.2 °F 41% 30.03 in 10.0 mi South 4.6 mph - N/A   Clear
4:55 PM 73.4 °F 50.0 °F 44% 30.03 in 10.0 mi SSW 6.9 mph - N/A   Mostly Cloudy
5:15 PM 73.4 °F 50.0 °F 44% 30.03 in 10.0 mi SSW 4.6 mph - N/A   Mostly Cloudy
5:35 PM 73.4 °F 50.0 °F 44% 30.03 in 10.0 mi SSW 4.6 mph - N/A Rain Light Rain
5:55 PM 71.6 °F 51.8 °F 50% 30.03 in 10.0 mi Calm Calm - N/A   Light Drizzle
6:15 PM 71.6 °F 53.6 °F 53% 30.03 in 10.0 mi Calm Calm - N/A   Light Drizzle
6:35 PM 69.8 °F 53.6 °F 56% 30.03 in 10.0 mi Calm Calm - N/A Rain Light Rain
6:55 PM 68.0 °F 55.4 °F 64% 30.02 in 10.0 mi Calm Calm - N/A Rain Light Rain
7:15 PM 68.0 °F 55.4 °F 64% 30.03 in 10.0 mi Calm Calm - N/A Rain Light Rain
7:35 PM 66.2 °F 57.2 °F 73% 30.03 in 10.0 mi Calm Calm - N/A   Light Drizzle
7:55 PM 64.4 °F 57.2 °F 77% 30.04 in 10.0 mi Calm Calm - N/A   Overcast
8:15 PM 64.4 °F 57.2 °F 77% 30.05 in 10.0 mi Calm Calm - N/A   Mostly Cloudy
8:35 PM 64.4 °F 59.0 °F 83% 30.05 in 10.0 mi Calm Calm - N/A   Mostly Cloudy
8:55 PM 64.4 °F 59.0 °F 83% 30.05 in 10.0 mi Calm Calm - N/A   Overcast
9:15 PM 62.6 °F 59.0 °F 88% 30.06 in 10.0 mi Calm Calm - N/A Rain Light Rain
9:35 PM 62.6 °F 60.8 °F 94% 30.06 in 10.0 mi Calm Calm - N/A   Light Drizzle
9:55 PM 62.6 °F 60.8 °F 94% 30.06 in 10.0 mi Calm Calm - N/A Rain Light Rain
10:15 PM 62.6 °F 60.8 °F 94% 30.08 in 7.0 mi Calm Calm - 0.01 in Rain Light Rain
10:35 PM 60.8 °F 60.8 °F 100% 30.08 in 7.0 mi Calm Calm - 0.01 in Rain Light Rain
10:55 PM 60.8 °F 60.8 °F 100% 30.08 in 4.0 mi Calm Calm - 0.04 in Rain Rain
11:15 PM 60.8 °F 60.8 °F 100% 30.09 in 4.0 mi Calm Calm - 0.02 in Rain Light Rain
11:35 PM 60.8 °F 60.8 °F 100% 30.08 in 5.0 mi Calm Calm - 0.04 in Rain Light Rain
11:55 PM 60.8 °F 60.8 °F 100% 30.08 in 5.0 mi Calm Calm - 0.04 in   Light Drizzle